Overview Statistics Trail Chart Weather Telemetry Raw packets
 

This is the latest recevied weather packets stored in our database for station/object KE8WMS. If no packets are shown the sender has not sent any weather packets the latest 10 day(s).

<< 37 38 39 40 41 42 43 >>
Time Temp. Humidity Pressure Rain* Wind** Luminosity Snow
1777587073 11.67° C 53% 1011 hPa 0 mm - 63 W/m² -
1777586769 11.67° C 52% 1010.9 hPa 0 mm - 56 W/m² -
1777586465 11.67° C 52% 1010.9 hPa 0 mm - 77 W/m² -
1777586160 12.22° C 55% 1011 hPa 0 mm - 261 W/m² -
1777585858 11.67° C 54% 1010.9 hPa 0 mm - 276 W/m² -
1777585558 12.22° C 51% 1010.9 hPa 0 mm - 289 W/m² -
1777585254 12.22° C 49% 1011 hPa 0 mm - 304 W/m² -
1777584949 11.67° C 53% 1011.2 hPa 0 mm - 322 W/m² -
1777584646 12.22° C 52% 1011.2 hPa 0 mm - 336 W/m² -
1777584343 12.78° C 50% 1011.1 hPa 0 mm - 348 W/m² -
1777584039 12.22° C 51% 1011.1 hPa 0 mm - 364 W/m² -
1777583734 12.78° C 52% 1011 hPa 0 mm - 381 W/m² -
1777583433 12.22° C 53% 1011.2 hPa 0 mm - 397 W/m² -
1777583132 11.67° C 53% 1011.2 hPa 0 mm - 417 W/m² -
1777582828 12.22° C 55% 1011.3 hPa 0 mm - 88 W/m² -
1777582526 12.78° C 54% 1011.1 hPa 0 mm - 445 W/m² -
1777582221 11.67° C 53% 1011.3 hPa 0 mm - 454 W/m² -
1777581919 12.22° C 54% 1011.2 hPa 0 mm - 465 W/m² -
1777581614 12.78° C 53% 1011.3 hPa 0 mm - 495 W/m² -
1777581308 12.22° C 52% 1011.2 hPa 0 mm - 497 W/m² -
1777581008 11.67° C 56% 1011.3 hPa 0 mm - 533 W/m² -
1777580703 11.67° C 53% 1011.3 hPa 0 mm - 531 W/m² -
1777580399 11.67° C 55% 1011.3 hPa 0 mm - 552 W/m² -
1777580095 11.67° C 54% 1011.4 hPa 0 mm - 547 W/m² -
1777579792 11.67° C 56% 1011.3 hPa 0 mm - 558 W/m² -

* Rain latest hour (hover to see other rain measurements)
** Current wind speed in m/s (hover to see current wind gust speed)